User: anonymous   Login
Location: Codford Saint Peter
(51.1597°N, 2.0531°W)
Time: 22:09:49
(UTC+00:00)
Language:

Cosmos 1544 - Orbit

View from above orbital plane
View from above orbital plane
View from above satellite
View from above satellite

Ground track
Ground track

The orbit data is extracted from the following two-line orbital elements,

1 14819U 84027A   24050.80873815  .00060445  00000-0  74004-3 0  9992
2 14819  82.4673  74.7046 0007625  54.1615 306.0349 15.60108658188771
Epoch (UTC): 19 February 2024 19:24:34
Eccentricity: 0.0007625
inclination: 82.4673°
perigee height: 382 km
apogee height: 392 km
right ascension of ascending node: 74.7046°
argument of perigee: 54.1615°
revolutions per day: 15.60108658
mean anomaly at epoch: 306.0349°
orbit number at epoch: 18877

The dashed part of the orbit path shows where the satellite is in the earth's shadow,  

DLR